QPF
0.04 0.04 0.04 0.04 0.03 0.03 0.03 0.03 0.03 0.03 0.03 0.04 0.03 0.02 0.02 0.01 0.01 0.02 0.02 0.03 0.01 0.01 0.01 0.02 0.02 0.01 0.01 0.01 0.01 0.00 0.00 0.00 0.00 0.00 0.00 0.00 0.00 0.00 0.00 0.00 0.00 0.01 0.01
0.04 0.04 0.05 0.05 0.04 0.04 0.03 0.02 0.02 0.03 0.04 0.04 0.04 0.03 0.02 0.02 0.02 0.02 0.02 0.02 0.02 0.01 0.01 0.02 0.02 0.02 0.02 0.01 0.01 0.01 0.01 0.01 0.01 0.00 0.01 0.01 0.01 0.01 0.00 0.00 0.00 0.00 0.01
0.04 0.04 0.05 0.04 0.04 0.05 0.05 0.04 0.04 0.04 0.05 0.05 0.04 0.04 0.03 0.02 0.02 0.02 0.02 0.02 0.02 0.01 0.01 0.01 0.02 0.02 0.02 0.02 0.02 0.02 0.01 0.01 0.01 0.01 0.01 0.01 0.00 0.00 0.00 0.00 0.01 0.01 0.01
0.05 0.04 0.04 0.04 0.05 0.05 0.06 0.06 0.05 0.05 0.05 0.06 0.06 0.05 0.05 0.03 0.02 0.02 0.03 0.03 0.02 0.02 0.01 0.01 0.02 0.03 0.02 0.02 0.02 0.03 0.02 0.02 0.01 0.01 0.01 0.01 0.01 0.01 0.01 0.01 0.01 0.01 0.01
0.07 0.04 0.03 0.04 0.05 0.06 0.07 0.07 0.06 0.05 0.05 0.05 0.07 0.06 0.06 0.05 0.04 0.03 0.03 0.03 0.03 0.03 0.02 0.02 0.02 0.03 0.03 0.03 0.02 0.03 0.03 0.03 0.03 0.02 0.02 0.02 0.01 0.01 0.01 0.01 0.01 0.01 0.01
0.08 0.06 0.03 0.03 0.05 0.07 0.06 0.07 0.08 0.09 0.07 0.06 0.07 0.06 0.06 0.05 0.04 0.03 0.02 0.02 0.03 0.03 0.03 0.04 0.03 0.02 0.03 0.03 0.03 0.04 0.04 0.04 0.04 0.03 0.02 0.02 0.02 0.02 0.02 0.02 0.01 0.01 0.01
0.05 0.05 0.04 0.04 0.05 0.06 0.06 0.07 0.09 0.12 0.13 0.12 0.10 0.08 0.06 0.05 0.05 0.03 0.03 0.03 0.02 0.03 0.04 0.04 0.04 0.04 0.03 0.03 0.03 0.04 0.04 0.05 0.05 0.04 0.04 0.03 0.03 0.02 0.02 0.02 0.02 0.02 0.02
0.04 0.04 0.04 0.04 0.06 0.08 0.08 0.07 0.09 0.11 0.13 0.16 0.16 0.14 0.13 0.11 0.08 0.07 0.06 0.06 0.05 0.05 0.06 0.06 0.06 0.06 0.05 0.04 0.03 0.03 0.04 0.04 0.05 0.05 0.05 0.04 0.04 0.04 0.04 0.04 0.04 0.04 0.04
0.03 0.03 0.03 0.04 0.06 0.09 0.09 0.08 0.09 0.11 0.13 0.15 0.16 0.15 0.13 0.12 0.10 0.09 0.08 0.09 0.09 0.08 0.07 0.07 0.07 0.06 0.06 0.04 0.03 0.03 0.03 0.03 0.04 0.05 0.05 0.05 0.05 0.05 0.05 0.05 0.05 0.05 0.05
0.04 0.04 0.05 0.06 0.05 0.06 0.09 0.09 0.08 0.10 0.14 0.15 0.17 0.16 0.12 0.10 0.10 0.10 0.09 0.09 0.09 0.09 0.10 0.10 0.08 0.07 0.06 0.05 0.04 0.03 0.03 0.03 0.04 0.04 0.05 0.06 0.06 0.05 0.05 0.05 0.05 0.05 0.05
0.03 0.03 0.05 0.05 0.05 0.04 0.05 0.07 0.08 0.09 0.12 0.14 0.15 0.17 0.17 0.14 0.10 0.07 0.07 0.07 0.08 0.09 0.10 0.11 0.11 0.10 0.08 0.07 0.06 0.05 0.05 0.04 0.05 0.05 0.05 0.06 0.06 0.06 0.05 0.04 0.04 0.05 0.05
0.03 0.02 0.02 0.03 0.04 0.04 0.04 0.06 0.07 0.08 0.08 0.11 0.13 0.14 0.15 0.15 0.11 0.07 0.05 0.05 0.06 0.07 0.08 0.08 0.10 0.11 0.11 0.09 0.08 0.07 0.06 0.05 0.05 0.05 0.05 0.06 0.06 0.06 0.05 0.04 0.04 0.04 0.04
0.04 0.03 0.02 0.02 0.03 0.03 0.04 0.05 0.06 0.07 0.07 0.09 0.11 0.13 0.13 0.12 0.12 0.10 0.08 0.06 0.07 0.08 0.09 0.09 0.08 0.08 0.09 0.09 0.07 0.06 0.05 0.03 0.02 0.03 0.03 0.04 0.04 0.04 0.04 0.04 0.04 0.04 0.05
0.04 0.05 0.04 0.02 0.01 0.02 0.03 0.04 0.05 0.06 0.07 0.08 0.09 0.11 0.13 0.12 0.11 0.10 0.10 0.09 0.10 0.11 0.11 0.10 0.08 0.07 0.08 0.08 0.06 0.05 0.04 0.03 0.02 0.02 0.02 0.02 0.03 0.03 0.03 0.03 0.04 0.04 0.05
0.04 0.05 0.08 0.03 0.02 0.02 0.02 0.03 0.05 0.06 0.06 0.06 0.08 0.09 0.11 0.12 0.11 0.09 0.08 0.08 0.09 0.10 0.09 0.07 0.07 0.06 0.05 0.06 0.07 0.07 0.05 0.04 0.04 0.02 0.02 0.02 0.02 0.02 0.02 0.03 0.03 0.04 0.04
0.03 0.02 0.03 0.02 0.02 0.02 0.02 0.03 0.04 0.07 0.07 0.07 0.07 0.09 0.10 0.11 0.10 0.08 0.06 0.05 0.05 0.06 0.06 0.05 0.04 0.04 0.04 0.04 0.05 0.06 0.07 0.08 0.06 0.05 0.03 0.03 0.02 0.02 0.03 0.03 0.02 0.03 0.03
0.03 0.02 0.02 0.01 0.01 0.02 0.02 0.03 0.03 0.06 0.09 0.09 0.08 0.08 0.09 0.09 0.09 0.08 0.06 0.04 0.03 0.03 0.04 0.04 0.04 0.04 0.05 0.05 0.05 0.05 0.05 0.07 0.07 0.05 0.04 0.02 0.02 0.02 0.02 0.02 0.02 0.02 0.02
0.02 0.02 0.02 0.02 0.01 0.02 0.04 0.05 0.05 0.06 0.07 0.08 0.09 0.09 0.09 0.08 0.08 0.07 0.06 0.05 0.04 0.03 0.03 0.04 0.04 0.04 0.06 0.06 0.06 0.05 0.04 0.04 0.05 0.05 0.04 0.03 0.02 0.02 0.02 0.02 0.02 0.02 0.01
0.02 0.02 0.02 0.02 0.01 0.02 0.05 0.07 0.09 0.09 0.09 0.09 0.09 0.10 0.09 0.08 0.07 0.06 0.06 0.05 0.05 0.05 0.05 0.05 0.05 0.05 0.05 0.06 0.07 0.07 0.05 0.04 0.03 0.04 0.04 0.03 0.03 0.03 0.03 0.02 0.02 0.02 0.02
0.02 0.02 0.02 0.02 0.01 0.02 0.04 0.06 0.08 0.09 0.11 0.11 0.11 0.12 0.11 0.10 0.07 0.06 0.06 0.05 0.05 0.06 0.06 0.05 0.05 0.05 0.04 0.05 0.07 0.08 0.07 0.05 0.03 0.03 0.04 0.04 0.04 0.03 0.03 0.03 0.03 0.03 0.02
0.01 0.02 0.02 0.02 0.02 0.02 0.04 0.06 0.06 0.08 0.09 0.10 0.10 0.10 0.11 0.11 0.09 0.07 0.06 0.06 0.05 0.06 0.06 0.05 0.05 0.04 0.04 0.05 0.06 0.07 0.08 0.06 0.04 0.04 0.05 0.05 0.05 0.04 0.04 0.03 0.04 0.04 0.03
0.02 0.03 0.03 0.04 0.04 0.04 0.05 0.07 0.08 0.08 0.08 0.09 0.08 0.08 0.08 0.08 0.08 0.07 0.07 0.06 0.06 0.06 0.05 0.05 0.05 0.04 0.04 0.04 0.05 0.07 0.08 0.09 0.07 0.05 0.05 0.06 0.05 0.05 0.04 0.03 0.03 0.03 0.03
0.04 0.04 0.05 0.06 0.05 0.06 0.07 0.07 0.09 0.09 0.08 0.08 0.07 0.07 0.07 0.07 0.06 0.06 0.06 0.06 0.06 0.06 0.06 0.06 0.05 0.04 0.03 0.03 0.04 0.07 0.08 0.08 0.06 0.04 0.04 0.06 0.05 0.05 0.04 0.03 0.03 0.03 0.02
0.05 0.05 0.06 0.06 0.05 0.05 0.07 0.08 0.09 0.09 0.08 0.08 0.08 0.06 0.06 0.08 0.07 0.07 0.06 0.06 0.05 0.05 0.05 0.05 0.04 0.04 0.03 0.03 0.04 0.05 0.07 0.08 0.07 0.05 0.05 0.06 0.05 0.05 0.04 0.04 0.04 0.03 0.02
0.07 0.07 0.07 0.07 0.06 0.05 0.06 0.06 0.05 0.06 0.06 0.06 0.07 0.06 0.05 0.06 0.08 0.08 0.07 0.07 0.06 0.05 0.04 0.04 0.04 0.03 0.03 0.04 0.05 0.07 0.09 0.10 0.08 0.06 0.05 0.05 0.05 0.04 0.04 0.04 0.04 0.05 0.04
0.08 0.06 0.07 0.07 0.07 0.05 0.05 0.05 0.05 0.05 0.05 0.05 0.05 0.05 0.05 0.05 0.06 0.07 0.06 0.07 0.06 0.05 0.04 0.04 0.03 0.03 0.02 0.03 0.04 0.06 0.08 0.10 0.09 0.06 0.04 0.04 0.04 0.04 0.05 0.04 0.03 0.04 0.05
MSLP
1016.67 1016.08 1015.41 1014.71 1014.02 1013.39 1012.86 1012.47 1012.20 1012.06 1012.00 1012.02 1012.06 1012.13 1012.21 1012.31 1012.43 1012.58 1012.76 1012.96 1013.17 1013.37 1013.57 1013.75 1013.92 1014.10 1014.28 1014.50 1014.76 1015.06 1015.39 1015.74 1016.10 1016.43 1016.72 1016.97 1017.18 1017.33 1017.45 1017.53 1017.58 1017.61 1017.62
1016.40 1015.78 1015.09 1014.38 1013.70 1013.09 1012.59 1012.22 1011.98 1011.84 1011.78 1011.78 1011.79 1011.82 1011.85 1011.89 1011.95 1012.05 1012.17 1012.33 1012.50 1012.69 1012.87 1013.05 1013.22 1013.38 1013.56 1013.76 1014.01 1014.29 1014.62 1014.98 1015.36 1015.74 1016.09 1016.41 1016.67 1016.88 1017.04 1017.13 1017.18 1017.18 1017.16
1016.11 1015.48 1014.80 1014.11 1013.47 1012.90 1012.44 1012.09 1011.86 1011.73 1011.66 1011.62 1011.60 1011.58 1011.56 1011.54 1011.54 1011.58 1011.64 1011.74 1011.87 1012.02 1012.18 1012.33 1012.48 1012.63 1012.79 1012.97 1013.19 1013.46 1013.77 1014.13 1014.52 1014.93 1015.33 1015.71 1016.04 1016.32 1016.53 1016.66 1016.72 1016.73 1016.71
1015.89 1015.26 1014.61 1013.97 1013.37 1012.85 1012.42 1012.10 1011.87 1011.71 1011.61 1011.53 1011.47 1011.40 1011.32 1011.25 1011.20 1011.17 1011.18 1011.23 1011.31 1011.41 1011.53 1011.65 1011.78 1011.90 1012.04 1012.19 1012.38 1012.61 1012.89 1013.22 1013.61 1014.03 1014.47 1014.90 1015.29 1015.64 1015.91 1016.10 1016.20 1016.24 1016.23
1015.81 1015.19 1014.58 1013.99 1013.44 1012.96 1012.56 1012.23 1011.98 1011.79 1011.63 1011.50 1011.38 1011.26 1011.14 1011.03 1010.93 1010.86 1010.82 1010.81 1010.83 1010.89 1010.96 1011.05 1011.15 1011.25 1011.35 1011.47 1011.62 1011.81 1012.04 1012.34 1012.69 1013.10 1013.54 1014.00 1014.44 1014.85 1015.19 1015.44 1015.61 1015.69 1015.72
1015.89 1015.29 1014.72 1014.18 1013.68 1013.23 1012.83 1012.49 1012.19 1011.94 1011.72 1011.53 1011.35 1011.19 1011.03 1010.89 1010.76 1010.65 1010.56 1010.50 1010.48 1010.48 1010.51 1010.56 1010.62 1010.70 1010.78 1010.86 1010.97 1011.10 1011.28 1011.51 1011.82 1012.18 1012.60 1013.06 1013.53 1013.97 1014.37 1014.69 1014.92 1015.06 1015.14
1016.13 1015.56 1015.03 1014.53 1014.07 1013.63 1013.22 1012.84 1012.49 1012.17 1011.88 1011.63 1011.40 1011.20 1011.02 1010.86 1010.70 1010.56 1010.44 1010.33 1010.25 1010.20 1010.18 1010.18 1010.21 1010.26 1010.31 1010.37 1010.44 1010.52 1010.63 1010.79 1011.02 1011.32 1011.69 1012.11 1012.58 1013.04 1013.48 1013.85 1014.14 1014.35 1014.48
1016.51 1015.97 1015.47 1015.00 1014.56 1014.12 1013.69 1013.27 1012.86 1012.47 1012.12 1011.81 1011.55 1011.33 1011.13 1010.95 1010.78 1010.61 1010.44 1010.28 1010.14 1010.02 1009.94 1009.90 1009.89 1009.91 1009.94 1009.97 1010.00 1010.04 1010.09 1010.17 1010.31 1010.53 1010.82 1011.20 1011.63 1012.09 1012.54 1012.95 1013.29 1013.55 1013.74
1016.98 1016.46 1015.98 1015.54 1015.11 1014.67 1014.21 1013.75 1013.28 1012.84 1012.45 1012.10 1011.82 1011.58 1011.38 1011.19 1011.00 1010.79 1010.56 1010.33 1010.10 1009.91 1009.75 1009.65 1009.60 1009.59 1009.60 1009.62 1009.63 1009.62 1009.62 1009.63 1009.68 1009.81 1010.02 1010.32 1010.70 1011.12 1011.57 1011.99 1012.37 1012.67 1012.91
1017.47 1016.97 1016.52 1016.10 1015.67 1015.22 1014.74 1014.25 1013.75 1013.28 1012.85 1012.49 1012.20 1011.96 1011.75 1011.55 1011.32 1011.06 1010.76 1010.44 1010.12 1009.82 1009.58 1009.40 1009.30 1009.26 1009.25 1009.25 1009.24 1009.20 1009.15 1009.10 1009.08 1009.12 1009.25 1009.47 1009.78 1010.17 1010.59 1011.01 1011.40 1011.74 1012.01
1017.94 1017.46 1017.03 1016.62 1016.20 1015.75 1015.26 1014.75 1014.23 1013.74 1013.31 1012.95 1012.66 1012.42 1012.20 1011.98 1011.71 1011.38 1011.00 1010.57 1010.13 1009.73 1009.38 1009.13 1008.96 1008.87 1008.84 1008.82 1008.79 1008.73 1008.65 1008.55 1008.47 1008.44 1008.49 1008.64 1008.89 1009.22 1009.61 1010.02 1010.42 1010.77 1011.08
1018.35 1017.90 1017.49 1017.08 1016.67 1016.21 1015.72 1015.20 1014.69 1014.20 1013.78 1013.43 1013.14 1012.91 1012.68 1012.42 1012.11 1011.70 1011.22 1010.69 1010.13 1009.61 1009.16 1008.82 1008.58 1008.44 1008.37 1008.32 1008.27 1008.19 1008.07 1007.93 1007.80 1007.71 1007.70 1007.79 1007.98 1008.28 1008.64 1009.03 1009.42 1009.79 1010.13
1018.68 1018.25 1017.85 1017.46 1017.04 1016.59 1016.10 1015.58 1015.08 1014.61 1014.20 1013.86 1013.59 1013.36 1013.12 1012.83 1012.46 1011.98 1011.41 1010.78 1010.12 1009.49 1008.95 1008.51 1008.20 1008.00 1007.87 1007.78 1007.70 1007.58 1007.43 1007.25 1007.08 1006.94 1006.88 1006.92 1007.07 1007.33 1007.66 1008.04 1008.43 1008.81 1009.17
1018.93 1018.52 1018.13 1017.73 1017.31 1016.86 1016.37 1015.86 1015.37 1014.91 1014.52 1014.21 1013.94 1013.71 1013.46 1013.14 1012.73 1012.20 1011.56 1010.85 1010.12 1009.41 1008.78 1008.27 1007.88 1007.61 1007.42 1007.27 1007.13 1006.96 1006.76 1006.54 1006.32 1006.14 1006.04 1006.04 1006.15 1006.38 1006.68 1007.04 1007.43 1007.82 1008.20
1019.09 1018.69 1018.30 1017.90 1017.48 1017.02 1016.53 1016.03 1015.54 1015.10 1014.73 1014.42 1014.17 1013.93 1013.67 1013.34 1012.90 1012.34 1011.67 1010.93 1010.15 1009.40 1008.72 1008.14 1007.69 1007.34 1007.08 1006.86 1006.64 1006.40 1006.13 1005.85 1005.57 1005.35 1005.20 1005.16 1005.24 1005.43 1005.71 1006.05 1006.42 1006.82 1007.21
1019.17 1018.77 1018.38 1017.97 1017.54 1017.07 1016.57 1016.07 1015.60 1015.17 1014.80 1014.50 1014.25 1014.01 1013.74 1013.41 1012.97 1012.41 1011.75 1011.01 1010.23 1009.48 1008.78 1008.17 1007.67 1007.26 1006.91 1006.59 1006.28 1005.95 1005.60 1005.24 1004.90 1004.62 1004.42 1004.33 1004.36 1004.50 1004.74 1005.05 1005.40 1005.78 1006.19
1019.18 1018.78 1018.38 1017.96 1017.51 1017.03 1016.53 1016.03 1015.55 1015.12 1014.76 1014.46 1014.20 1013.95 1013.69 1013.36 1012.94 1012.41 1011.79 1011.09 1010.36 1009.63 1008.95 1008.34 1007.81 1007.34 1006.91 1006.51 1006.10 1005.66 1005.22 1004.77 1004.35 1004.00 1003.73 1003.58 1003.54 1003.62 1003.79 1004.04 1004.34 1004.70 1005.09
1019.13 1018.72 1018.31 1017.88 1017.42 1016.94 1016.43 1015.93 1015.45 1015.01 1014.63 1014.32 1014.04 1013.79 1013.52 1013.20 1012.81 1012.32 1011.76 1011.13 1010.47 1009.81 1009.17 1008.58 1008.03 1007.52 1007.04 1006.55 1006.04 1005.52 1004.98 1004.45 1003.95 1003.52 1003.17 1002.93 1002.80 1002.78 1002.86 1003.01 1003.24 1003.54 1003.90
1019.03 1018.63 1018.21 1017.78 1017.31 1016.82 1016.31 1015.80 1015.31 1014.86 1014.46 1014.12 1013.81 1013.53 1013.25 1012.93 1012.56 1012.12 1011.62 1011.07 1010.49 1009.91 1009.33 1008.77 1008.23 1007.71 1007.18 1006.63 1006.06 1005.46 1004.85 1004.25 1003.68 1003.17 1002.73 1002.39 1002.15 1002.00 1001.95 1001.98 1002.09 1002.30 1002.61
1018.91 1018.51 1018.09 1017.66 1017.19 1016.70 1016.18 1015.67 1015.16 1014.69 1014.26 1013.87 1013.53 1013.20 1012.89 1012.55 1012.18 1011.78 1011.33 1010.84 1010.34 1009.82 1009.31 1008.79 1008.28 1007.76 1007.21 1006.64 1006.03 1005.40 1004.75 1004.10 1003.48 1002.90 1002.39 1001.94 1001.57 1001.28 1001.06 1000.93 1000.90 1000.99 1001.21
1018.78 1018.38 1017.98 1017.54 1017.08 1016.58 1016.06 1015.54 1015.01 1014.50 1014.03 1013.59 1013.18 1012.80 1012.43 1012.06 1011.67 1011.27 1010.84 1010.40 1009.94 1009.49 1009.02 1008.55 1008.07 1007.56 1007.03 1006.46 1005.86 1005.23 1004.58 1003.93 1003.29 1002.67 1002.09 1001.55 1001.05 1000.60 1000.21 999.90 999.69 999.63 999.74
1018.65 1018.27 1017.86 1017.43 1016.96 1016.47 1015.94 1015.39 1014.84 1014.30 1013.77 1013.26 1012.78 1012.32 1011.88 1011.45 1011.02 1010.59 1010.16 1009.73 1009.30 1008.87 1008.44 1008.00 1007.55 1007.07 1006.57 1006.03 1005.47 1004.88 1004.27 1003.65 1003.03 1002.41 1001.79 1001.17 1000.55 999.95 999.39 998.89 998.50 998.27 998.26
1018.52 1018.15 1017.74 1017.31 1016.84 1016.33 1015.79 1015.22 1014.64 1014.05 1013.46 1012.89 1012.33 1011.79 1011.26 1010.76 1010.26 1009.79 1009.32 1008.87 1008.44 1008.01 1007.59 1007.17 1006.74 1006.29 1005.82 1005.34 1004.83 1004.31 1003.78 1003.22 1002.65 1002.06 1001.43 1000.76 1000.06 999.34 998.61 997.94 997.38 996.99 996.83
1018.39 1018.01 1017.60 1017.15 1016.67 1016.14 1015.58 1014.98 1014.37 1013.73 1013.09 1012.46 1011.83 1011.21 1010.61 1010.03 1009.47 1008.93 1008.42 1007.94 1007.47 1007.02 1006.58 1006.16 1005.73 1005.30 1004.86 1004.42 1003.98 1003.54 1003.09 1002.62 1002.12 1001.58 1000.98 1000.30 999.55 998.74 997.90 997.09 996.37 995.83 995.54
1018.23 1017.84 1017.41 1016.94 1016.44 1015.89 1015.30 1014.67 1014.02 1013.35 1012.67 1011.99 1011.30 1010.63 1009.97 1009.33 1008.71 1008.13 1007.57 1007.03 1006.53 1006.04 1005.57 1005.11 1004.67 1004.23 1003.80 1003.39 1003.00 1002.62 1002.24 1001.86 1001.44 1000.97 1000.42 999.77 999.01 998.16 997.26 996.35 995.53 994.87 994.47
1018.02 1017.61 1017.16 1016.67 1016.13 1015.55 1014.94 1014.29 1013.62 1012.92 1012.22 1011.51 1010.80 1010.09 1009.40 1008.73 1008.08 1007.45 1006.86 1006.29 1005.74 1005.20 1004.69 1004.18 1003.70 1003.22 1002.78 1002.36 1001.98 1001.63 1001.30 1000.98 1000.64 1000.25 999.76 999.16 998.44 997.60 996.68 995.74 994.86 994.13 993.64
Thickness
5673 5675 5677 5678 5679 5680 5682 5683 5683 5683 5684 5684 5684 5684 5684 5684 5684 5684 5683 5683 5683 5682 5682 5681 5680 5679 5678 5677 5675 5674 5672 5671 5670 5668 5667 5666 5665 5663 5663 5662 5661 5660 5659
5665 5667 5668 5669 5671 5672 5673 5675 5676 5677 5677 5678 5678 5678 5679 5679 5679 5679 5679 5678 5678 5678 5677 5677 5676 5675 5674 5673 5671 5670 5668 5667 5665 5664 5663 5661 5660 5659 5658 5657 5656 5655 5654
5656 5658 5659 5661 5663 5664 5665 5666 5668 5669 5670 5670 5671 5672 5673 5673 5674 5674 5674 5673 5673 5673 5672 5672 5672 5671 5670 5668 5667 5665 5664 5662 5661 5659 5658 5656 5655 5654 5653 5652 5651 5650 5650
5647 5648 5650 5652 5654 5655 5656 5657 5659 5660 5661 5663 5664 5665 5666 5667 5667 5668 5668 5668 5668 5667 5667 5667 5666 5665 5664 5663 5662 5661 5659 5657 5656 5654 5653 5651 5650 5649 5648 5647 5646 5645 5644
5637 5638 5640 5642 5644 5645 5646 5648 5650 5651 5652 5654 5656 5657 5658 5659 5660 5661 5662 5662 5662 5662 5661 5661 5660 5659 5658 5657 5656 5655 5653 5652 5650 5649 5647 5646 5645 5644 5643 5642 5641 5640 5639
5626 5628 5630 5632 5633 5635 5636 5638 5639 5641 5643 5645 5647 5649 5650 5651 5653 5654 5655 5655 5656 5656 5655 5654 5653 5652 5652 5650 5649 5649 5648 5646 5645 5643 5642 5641 5639 5638 5637 5636 5635 5634 5633
5616 5617 5619 5620 5622 5624 5626 5627 5629 5631 5633 5634 5635 5637 5640 5643 5645 5647 5647 5648 5649 5649 5648 5647 5646 5645 5644 5643 5642 5641 5640 5640 5639 5637 5636 5635 5633 5632 5631 5630 5629 5628 5627
5606 5606 5608 5610 5611 5612 5614 5616 5617 5619 5622 5623 5624 5626 5628 5631 5636 5639 5639 5640 5641 5641 5640 5639 5639 5637 5636 5635 5634 5633 5632 5632 5631 5630 5629 5628 5627 5626 5625 5623 5622 5621 5620
5594 5595 5597 5598 5599 5601 5603 5605 5606 5608 5610 5612 5614 5616 5618 5622 5624 5627 5629 5630 5631 5631 5631 5630 5630 5629 5628 5626 5626 5625 5624 5623 5623 5622 5622 5621 5619 5618 5617 5616 5615 5614 5612
5583 5584 5585 5587 5588 5590 5591 5593 5595 5597 5599 5601 5603 5606 5608 5611 5612 5615 5617 5619 5620 5620 5620 5621 5620 5619 5618 5617 5617 5617 5616 5615 5614 5614 5613 5612 5611 5610 5609 5608 5606 5605 5604
5572 5573 5574 5576 5577 5579 5580 5582 5584 5585 5587 5590 5592 5594 5595 5597 5601 5602 5605 5607 5607 5609 5609 5609 5609 5609 5608 5608 5608 5608 5607 5606 5606 5605 5604 5604 5602 5600 5599 5599 5597 5596 5595
5562 5563 5564 5565 5567 5568 5570 5572 5573 5574 5576 5579 5581 5583 5585 5586 5588 5590 5593 5595 5596 5598 5598 5598 5598 5598 5599 5598 5598 5598 5598 5597 5596 5596 5595 5594 5593 5591 5590 5589 5588 5587 5586
5551 5552 5554 5556 5557 5558 5560 5562 5563 5564 5565 5567 5570 5571 5574 5575 5577 5578 5580 5581 5582 5585 5586 5587 5588 5588 5588 5588 5588 5588 5588 5587 5587 5586 5585 5585 5583 5582 5580 5580 5579 5578 5577
5541 5542 5544 5545 5547 5549 5550 5551 5553 5554 5555 5557 5558 5560 5562 5563 5565 5567 5568 5567 5568 5571 5573 5575 5576 5577 5577 5577 5578 5578 5578 5577 5578 5577 5575 5575 5574 5572 5571 5570 5569 5568 5568
5533 5533 5535 5536 5538 5539 5541 5542 5544 5545 5545 5546 5547 5549 5550 5551 5553 5554 5555 5556 5556 5558 5562 5564 5563 5566 5565 5565 5566 5566 5566 5567 5568 5566 5565 5565 5564 5563 5561 5560 5560 5559 5557
5525 5526 5527 5528 5529 5531 5532 5533 5534 5535 5534 5536 5537 5538 5539 5540 5541 5542 5543 5544 5545 5546 5548 5551 5551 5552 5552 5553 5555 5555 5555 5556 5555 5555 5555 5554 5553 5552 5551 5550 5549 5548 5548
5517 5518 5519 5520 5521 5522 5523 5524 5524 5524 5524 5525 5526 5527 5528 5528 5529 5530 5531 5531 5531 5532 5534 5536 5537 5537 5537 5538 5540 5541 5542 5543 5543 5543 5544 5544 5542 5541 5540 5539 5539 5538 5538
5510 5510 5511 5512 5513 5514 5515 5515 5515 5515 5515 5515 5516 5516 5517 5518 5518 5518 5519 5519 5519 5520 5520 5522 5523 5524 5525 5525 5526 5527 5529 5530 5531 5532 5532 5532 5531 5530 5529 5528 5529 5528 5528
5503 5504 5504 5505 5506 5506 5507 5507 5506 5506 5506 5506 5506 5506 5507 5507 5507 5507 5507 5507 5507 5508 5508 5509 5511 5511 5512 5513 5513 5514 5516 5518 5519 5520 5520 5520 5519 5518 5518 5518 5518 5519 5518
5498 5498 5498 5499 5499 5499 5500 5499 5499 5498 5498 5497 5496 5496 5496 5497 5497 5496 5496 5496 5495 5495 5496 5497 5498 5498 5499 5499 5499 5500 5504 5506 5507 5507 5507 5508 5507 5507 5507 5507 5508 5509 5509
5492 5493 5493 5493 5493 5493 5493 5492 5490 5489 5488 5488 5487 5487 5488 5487 5487 5486 5486 5486 5484 5483 5484 5484 5485 5486 5487 5488 5488 5488 5490 5493 5495 5496 5496 5497 5496 5497 5497 5497 5497 5498 5499
5487 5487 5486 5486 5486 5486 5485 5485 5483 5481 5480 5479 5479 5479 5480 5478 5477 5477 5476 5475 5473 5472 5473 5473 5473 5474 5477 5477 5476 5477 5477 5479 5484 5486 5483 5486 5485 5487 5488 5488 5488 5489 5489
5480 5480 5479 5479 5478 5477 5477 5477 5476 5473 5471 5470 5469 5470 5470 5469 5467 5466 5465 5464 5462 5461 5462 5462 5463 5464 5465 5467 5466 5467 5466 5466 5469 5471 5468 5474 5476 5477 5478 5479 5478 5479 5480
5472 5471 5471 5470 5469 5469 5469 5468 5466 5464 5462 5460 5459 5458 5458 5458 5457 5456 5455 5453 5451 5450 5451 5452 5453 5455 5455 5455 5456 5456 5456 5456 5458 5458 5457 5461 5465 5467 5469 5469 5470 5470 5471
5465 5464 5463 5462 5461 5460 5460 5459 5458 5455 5453 5451 5449 5448 5448 5447 5447 5446 5444 5443 5441 5440 5440 5441 5443 5443 5444 5444 5444 5443 5443 5444 5447 5449 5447 5448 5452 5454 5459 5461 5461 5461 5462
5458 5456 5455 5453 5451 5450 5450 5450 5448 5446 5443 5442 5440 5439 5438 5437 5436 5434 5432 5431 5430 5430 5430 5431 5431 5431 5432 5433 5432 5432 5432 5432 5435 5437 5439 5437 5439 5439 5447 5452 5452 5452 5453